This is the latest recevied weather packets stored in our database for station/object HB9FHL-13. If no packets are shown the sender has not sent any weather packets the latest 10 day(s).
| Time | Temp. | Humidity | Pressure | Rain* | Wind** | Luminosity | Snow |
|---|---|---|---|---|---|---|---|
| 1776976919 | 13.89° C | - | 1023.5 hPa | 0 mm | - | - | - |
| 1776976619 | 14.44° C | - | 1020.6 hPa | 0 mm | - | - | - |
| 1776976318 | 13.33° C | - | 1022 hPa | 0 mm | - | - | - |
| 1776976018 | 13.89° C | - | 1024.3 hPa | 0 mm | - | - | - |
| 1776975717 | 13.89° C | - | 1023.5 hPa | 0 mm | - | - | - |
| 1776975417 | 12.78° C | - | 1023.4 hPa | 0 mm | - | - | - |
| 1776975116 | 13.89° C | - | 1025.6 hPa | 0 mm | - | - | - |
| 1776974816 | 13.33° C | - | 1023.6 hPa | 0 mm | - | - | - |
| 1776974515 | 14.44° C | - | 1024.3 hPa | 0 mm | - | - | - |
| 1776974215 | 13.33° C | - | 1024.4 hPa | 0 mm | - | - | - |
| 1776973914 | 13.89° C | - | 1019.7 hPa | 0 mm | - | - | - |
| 1776973614 | 13.89° C | - | 1022.7 hPa | 0 mm | - | - | - |
| 1776973313 | 13.89° C | - | 1023.5 hPa | 0 mm | - | - | - |
| 1776973013 | 13.89° C | - | 1022.8 hPa | 0 mm | - | - | - |
| 1776972712 | 12.78° C | - | 1023 hPa | 0 mm | - | - | - |
| 1776972412 | 13.33° C | - | 1024.1 hPa | 0 mm | - | - | - |
| 1776972112 | 12.78° C | - | 1020.8 hPa | 0 mm | - | - | - |
| 1776971811 | 13.33° C | - | 1026.1 hPa | 0 mm | - | - | - |
| 1776971511 | 13.33° C | - | 1024 hPa | 0 mm | - | - | - |
| 1776971210 | 13.33° C | - | 1024 hPa | 0 mm | - | - | - |
| 1776970908 | 13.89° C | - | 1026.7 hPa | 0 mm | - | - | - |
| 1776970608 | 12.22° C | - | 1019.8 hPa | 0 mm | - | - | - |
| 1776970307 | 13.89° C | - | 1021.4 hPa | 0 mm | - | - | - |
| 1776970006 | 13.89° C | - | 1025.6 hPa | 0 mm | - | - | - |
| 1776969705 | 13.89° C | - | 1025.1 hPa | 0 mm | - | - | - |
* Rain since midnight (hover to see other rain measurements)
** Current wind speed in m/s (hover to see current wind gust speed)